Weather History for Lima, OH

Change the Weather History Date:

Sunday, October 27, 2013

  Actual Average (KFDY) Record (KFDY)
Temperature  
Mean Temperature 44 °F -  
Max Temperature 54 °F 59 °F 77 °F (1955)
Min Temperature 34 °F 39 °F 21 °F (1962)
Degree Days  
Heating Degree Days 21    
Moisture  
Dew Point 31 °F    
Average Humidity 65    
Maximum Humidity 89    
Minimum Humidity 41    
Precipitation  
Precipitation 0.00 in - - ()
Sea Level Pressure  
Sea Level Pressure 30.07 in    
Wind  
Wind Speed 5 mph (SW)    
Max Wind Speed 13 mph    
Max Gust Speed 18 mph    
Visibility 10 miles    
Events      
Averages and records for this station are not official NWS values.
T = Trace of Precipitation, MM = Missing Value Source: NWS Daily Summary

Daily Weather History Graph

Daily Weather History Graph

Search for Another Location

Airport:

Trip Planner

Search our weather history database for the weather conditions in past years. The results will help you decide how hot, cold, wet, or windy it might be!

Date:

Astronomy

Oct. 27, 2013 Rise Set
Actual Time 8:00 AM EDT 6:38 PM EDT
Civil Twilight 7:32 AM EDT 7:06 PM EDT
Nautical Twilight 7:00 AM EDT 7:38 PM EDT
Astronomical Twilight 6:28 AM EDT 8:10 PM EDT
Moon 12:55 AM EDT (10/27) 2:49 PM EDT (10/27)
Length of Visible Light 11h 33m
Length of Day
10h 37m
Last Quarter, 44% of the Moon is Illuminated
Oct 27
Last Quarter
Nov 3
New
Nov 10
First Quarter
Nov 17
Full
Nov 25
Last Quarter

Hourly Weather History & Observations

Time (EDT) Temp. Windchill Dew Point Humidity Pressure Visibility Wind Dir Wind Speed Gust Speed Precip Events Conditions
12:53 AM 39.9 °F 37.8 °F 32.0 °F 73% 30.05 in 10.0 mi WNW 3.5 mph - N/A   Clear
1:53 AM 39.9 °F 36.7 °F 30.9 °F 70% 30.04 in 10.0 mi WSW 4.6 mph - N/A   Clear
2:53 AM 37.0 °F - 30.9 °F 79% 30.04 in 10.0 mi Calm Calm - N/A   Clear
3:53 AM 37.9 °F 35.5 °F 32.0 °F 79% 30.04 in 10.0 mi SW 3.5 mph - N/A   Partly Cloudy
4:53 AM 35.1 °F 32.2 °F 30.9 °F 85% 30.04 in 10.0 mi SSW 3.5 mph - N/A   Clear
5:53 AM 35.1 °F 32.2 °F 30.9 °F 85% 30.06 in 10.0 mi WSW 3.5 mph - N/A   Mostly Cloudy
6:53 AM 35.1 °F 32.2 °F 30.9 °F 85% 30.07 in 10.0 mi South 3.5 mph - N/A   Partly Cloudy
7:53 AM 34.0 °F 28.8 °F 30.0 °F 85% 30.07 in 10.0 mi South 5.8 mph - N/A   Clear
8:53 AM 34.0 °F 29.8 °F 30.9 °F 89% 30.09 in 8.0 mi South 4.6 mph - N/A   Clear
9:53 AM 41.0 °F 36.4 °F 35.1 °F 79% 30.10 in 10.0 mi South 6.9 mph - N/A   Clear
10:53 AM 46.9 °F - 33.1 °F 59% 30.10 in 10.0 mi SSW 8.1 mph - N/A   Clear
11:53 AM 50.0 °F - 33.1 °F 52% 30.10 in 10.0 mi SW 10.4 mph - N/A   Clear
12:53 PM 51.1 °F - 32.0 °F 48% 30.09 in 10.0 mi WSW 9.2 mph - N/A   Partly Cloudy
1:53 PM 52.0 °F - 32.0 °F 47% 30.07 in 10.0 mi West 9.2 mph - N/A   Mostly Cloudy
2:53 PM 54.0 °F - 30.9 °F 41% 30.06 in 10.0 mi WSW 9.2 mph 18.4 mph N/A   Mostly Cloudy
3:53 PM 54.0 °F - 30.9 °F 41% 30.05 in 10.0 mi SW 12.7 mph - N/A   Clear
4:53 PM 53.1 °F - 30.0 °F 41% 30.05 in 10.0 mi SW 12.7 mph - N/A   Clear
5:53 PM 53.1 °F - 30.9 °F 43% 30.05 in 10.0 mi SW 8.1 mph - N/A   Clear
6:53 PM 50.0 °F - 30.9 °F 48% 30.06 in 10.0 mi SW 3.5 mph - N/A   Clear
7:53 PM 45.0 °F 42.6 °F 30.9 °F 58% 30.06 in 10.0 mi South 4.6 mph - N/A   Clear
8:53 PM 42.1 °F 39.2 °F 30.9 °F 65% 30.07 in 10.0 mi South 4.6 mph - N/A   Clear
9:53 PM 39.9 °F - 30.0 °F 68% 30.08 in 10.0 mi Calm Calm - N/A   Clear
10:53 PM 39.9 °F 36.7 °F 30.0 °F 68% 30.09 in 10.0 mi South 4.6 mph - N/A   Clear
11:53 PM 39.9 °F 37.8 °F 30.0 °F 68% 30.09 in 10.0 mi South 3.5 mph - N/A   Clear